Time,TemperatureF,DewpointF,PressureIn,WindDirection,WindDirectionDegrees,WindSpeedMPH,WindSpeedGustMPH,Humidity,HourlyPrecipIn,Conditions,Clouds,dailyrainin,SoftwareType,DateUTC
2013-08-26 00:02:00,82.4,56.3,30.17,SE,128,7.0,13.0,41,0.00,,,0.00,meteohub,2013-08-26 06:02:00,
2013-08-26 00:07:00,82.2,56.1,30.17,SE,130,11.0,13.0,41,0.00,,,0.00,meteohub,2013-08-26 06:07:00,
2013-08-26 00:12:00,82.2,56.1,30.17,ESE,120,8.0,14.0,41,0.00,,,0.00,meteohub,2013-08-26 06:12:00,
2013-08-26 00:17:00,82.0,55.9,30.16,SE,130,6.0,14.0,41,0.00,,,0.00,meteohub,2013-08-26 06:17:00,
2013-08-26 00:22:00,81.9,55.9,30.16,ESE,119,9.0,14.0,41,0.00,,,0.00,meteohub,2013-08-26 06:22:00,
2013-08-26 00:27:00,81.9,55.9,30.17,ESE,117,9.0,12.0,41,0.00,,,0.00,meteohub,2013-08-26 06:27:00,
2013-08-26 00:32:00,81.7,55.8,30.17,ESE,123,5.0,12.0,41,0.00,,,0.00,meteohub,2013-08-26 06:32:00,
2013-08-26 00:37:00,81.5,56.1,30.17,SE,144,6.0,12.0,42,0.00,,,0.00,meteohub,2013-08-26 06:37:00,
2013-08-26 00:42:00,81.5,55.6,30.17,SE,130,3.0,11.0,41,0.00,,,0.00,meteohub,2013-08-26 06:42:00,
2013-08-26 00:47:00,81.5,55.6,30.17,SE,131,7.0,13.0,41,0.00,,,0.00,meteohub,2013-08-26 06:47:00,
2013-08-26 00:52:00,81.3,56.1,30.17,SE,128,8.0,13.0,42,0.00,,,0.00,meteohub,2013-08-26 06:52:00,
2013-08-26 00:57:00,81.3,56.1,30.17,SE,133,6.0,13.0,42,0.00,,,0.00,meteohub,2013-08-26 06:57:00,
2013-08-26 01:02:00,81.3,56.1,30.17,SSE,161,7.0,12.0,42,0.00,,,0.00,meteohub,2013-08-26 07:02:00,
2013-08-26 01:07:00,81.1,55.2,30.17,SE,143,5.0,12.0,41,0.00,,,0.00,meteohub,2013-08-26 07:07:00,
2013-08-26 01:12:00,81.1,55.9,30.16,SSE,163,7.0,12.0,42,0.00,,,0.00,meteohub,2013-08-26 07:12:00,
2013-08-26 01:17:00,81.0,55.8,30.16,ESE,123,5.0,11.0,42,0.00,,,0.00,meteohub,2013-08-26 07:17:00,
2013-08-26 01:22:00,80.8,55.6,30.16,SSE,147,5.0,11.0,42,0.00,,,0.00,meteohub,2013-08-26 07:22:00,
2013-08-26 01:27:00,80.8,55.6,30.16,SE,142,10.0,11.0,42,0.00,,,0.00,meteohub,2013-08-26 07:27:00,
2013-08-26 01:32:00,80.4,55.2,30.16,SE,127,7.0,11.0,42,0.00,,,0.00,meteohub,2013-08-26 07:32:00,
2013-08-26 01:37:00,80.2,55.8,30.16,SE,127,7.0,11.0,43,0.00,,,0.00,meteohub,2013-08-26 07:37:00,
2013-08-26 01:42:00,79.9,55.4,30.16,SE,130,6.0,11.0,43,0.00,,,0.00,meteohub,2013-08-26 07:42:00,
2013-08-26 01:47:00,79.7,55.9,30.16,SE,129,6.0,12.0,44,0.00,,,0.00,meteohub,2013-08-26 07:47:00,
2013-08-26 01:52:00,79.5,55.8,30.16,SE,139,3.0,12.0,44,0.00,,,0.00,meteohub,2013-08-26 07:52:00,
2013-08-26 01:57:00,79.5,55.8,30.16,SE,129,3.0,12.0,44,0.00,,,0.00,meteohub,2013-08-26 07:57:00,
2013-08-26 02:02:00,79.3,55.6,30.16,SE,129,4.0,9.0,44,0.00,,,0.00,meteohub,2013-08-26 08:02:00,
2013-08-26 02:07:00,79.2,55.9,30.16,SE,134,5.0,7.0,45,0.00,,,0.00,meteohub,2013-08-26 08:07:00,
2013-08-26 02:12:00,79.0,55.8,30.16,SE,130,1.0,7.0,45,0.00,,,0.00,meteohub,2013-08-26 08:12:00,
2013-08-26 02:17:00,78.8,55.6,30.16,SE,130,4.0,7.0,45,0.00,,,0.00,meteohub,2013-08-26 08:17:00,
2013-08-26 02:22:00,78.6,55.6,30.16,SE,139,4.0,7.0,45,0.00,,,0.00,meteohub,2013-08-26 08:22:00,
2013-08-26 02:27:00,78.6,56.1,30.16,SE,144,4.0,7.0,46,0.00,,,0.00,meteohub,2013-08-26 08:27:00,
2013-08-26 02:32:00,78.6,56.1,30.16,SE,138,4.0,7.0,46,0.00,,,0.00,meteohub,2013-08-26 08:32:00,
2013-08-26 02:37:00,78.6,56.1,30.16,SE,138,3.0,7.0,46,0.00,,,0.00,meteohub,2013-08-26 08:37:00,
2013-08-26 02:42:00,78.6,56.1,30.16,SSE,151,4.0,9.0,46,0.00,,,0.00,meteohub,2013-08-26 08:42:00,
2013-08-26 02:47:00,78.6,55.6,30.16,SSE,153,3.0,9.0,45,0.00,,,0.00,meteohub,2013-08-26 08:47:00,
2013-08-26 02:52:00,78.4,55.9,30.16,South,169,2.0,9.0,46,0.00,,,0.00,meteohub,2013-08-26 08:52:00,
2013-08-26 02:57:00,78.1,55.6,30.16,South,171,2.0,6.0,46,0.00,,,0.00,meteohub,2013-08-26 08:57:00,
2013-08-26 03:02:00,78.1,55.6,30.16,SSE,167,2.0,6.0,46,0.00,,,0.00,meteohub,2013-08-26 09:02:00,
2013-08-26 03:07:00,78.1,55.6,30.16,SSE,161,4.0,6.0,46,0.00,,,0.00,meteohub,2013-08-26 09:07:00,
2013-08-26 03:12:00,78.1,56.3,30.16,SSE,159,4.0,6.0,47,0.00,,,0.00,meteohub,2013-08-26 09:12:00,
2013-08-26 03:17:00,78.1,56.3,30.16,SSE,153,8.0,8.0,47,0.00,,,0.00,meteohub,2013-08-26 09:17:00,
2013-08-26 03:22:00,78.1,56.3,30.16,SSE,153,4.0,8.0,47,0.00,,,0.00,meteohub,2013-08-26 09:22:00,
2013-08-26 03:27:00,77.9,56.1,30.16,SSE,158,2.0,8.0,47,0.00,,,0.00,meteohub,2013-08-26 09:27:00,
2013-08-26 03:32:00,77.9,56.1,30.16,South,177,3.0,8.0,47,0.00,,,0.00,meteohub,2013-08-26 09:32:00,
2013-08-26 03:37:00,77.5,55.8,30.16,SSE,163,4.0,8.0,47,0.00,,,0.00,meteohub,2013-08-26 09:37:00,
2013-08-26 03:42:00,77.5,55.8,30.16,South,176,4.0,8.0,47,0.00,,,0.00,meteohub,2013-08-26 09:42:00,
2013-08-26 03:47:00,77.4,56.1,30.16,SSE,165,3.0,7.0,48,0.00,,,0.00,meteohub,2013-08-26 09:47:00,
2013-08-26 03:52:00,77.2,55.9,30.16,SSE,161,3.0,7.0,48,0.00,,,0.00,meteohub,2013-08-26 09:52:00,
2013-08-26 03:57:00,77.2,55.9,30.16,SSE,153,6.0,8.0,48,0.00,,,0.00,meteohub,2013-08-26 09:57:00,
2013-08-26 04:02:00,77.2,55.9,30.16,SE,130,4.0,8.0,48,0.00,,,0.00,meteohub,2013-08-26 10:02:00,
2013-08-26 04:07:00,77.2,55.9,30.16,SE,143,2.0,8.0,48,0.00,,,0.00,meteohub,2013-08-26 10:07:00,
2013-08-26 04:12:00,77.4,55.6,30.16,SE,125,7.0,10.0,47,0.00,,,0.00,meteohub,2013-08-26 10:12:00,
2013-08-26 04:17:00,77.4,55.6,30.16,SE,140,7.0,11.0,47,0.00,,,0.00,meteohub,2013-08-26 10:17:00,
2013-08-26 04:22:00,77.4,55.6,30.16,SE,132,7.0,11.0,47,0.00,,,0.00,meteohub,2013-08-26 10:22:00,
2013-08-26 04:27:00,77.4,55.6,30.16,ESE,121,5.0,11.0,47,0.00,,,0.00,meteohub,2013-08-26 10:27:00,
2013-08-26 04:32:00,77.2,55.4,30.16,SE,128,6.0,11.0,47,0.00,,,0.00,meteohub,2013-08-26 10:32:00,
2013-08-26 04:37:00,76.8,55.6,30.16,SE,143,6.0,10.0,48,0.00,,,0.00,meteohub,2013-08-26 10:37:00,
2013-08-26 04:42:00,76.8,55.6,30.16,SE,137,5.0,10.0,48,0.00,,,0.00,meteohub,2013-08-26 10:42:00,
2013-08-26 04:47:00,76.6,55.4,30.16,SE,136,5.0,10.0,48,0.00,,,0.00,meteohub,2013-08-26 10:47:00,
2013-08-26 04:52:00,76.6,55.4,30.16,ESE,106,4.0,9.0,48,0.00,,,0.00,meteohub,2013-08-26 10:52:00,
2013-08-26 04:57:00,76.5,55.4,30.16,ESE,114,4.0,9.0,48,0.00,,,0.00,meteohub,2013-08-26 10:57:00,
2013-08-26 05:02:00,76.3,55.8,30.16,ESE,111,2.0,8.0,49,0.00,,,0.00,meteohub,2013-08-26 11:02:00,
2013-08-26 05:07:00,76.1,55.6,30.16,SE,134,4.0,8.0,49,0.00,,,0.00,meteohub,2013-08-26 11:07:00,
2013-08-26 05:12:00,76.1,55.6,30.16,ESE,113,7.0,11.0,49,0.00,,,0.00,meteohub,2013-08-26 11:12:00,
2013-08-26 05:17:00,76.1,55.6,30.17,ESE,120,5.0,11.0,49,0.00,,,0.00,meteohub,2013-08-26 11:17:00,
2013-08-26 05:22:00,76.1,55.6,30.17,SE,130,7.0,10.0,49,0.00,,,0.00,meteohub,2013-08-26 11:22:00,
2013-08-26 05:27:00,75.9,55.4,30.17,ESE,113,5.0,10.0,49,0.00,,,0.00,meteohub,2013-08-26 11:27:00,
2013-08-26 05:32:00,75.7,55.2,30.17,ESE,113,7.0,10.0,49,0.00,,,0.00,meteohub,2013-08-26 11:32:00,
2013-08-26 05:37:00,75.7,55.8,30.17,East,96,6.0,10.0,50,0.00,,,0.00,meteohub,2013-08-26 11:37:00,
2013-08-26 05:42:00,75.6,55.6,30.17,SE,126,6.0,10.0,50,0.00,,,0.00,meteohub,2013-08-26 11:42:00,
2013-08-26 05:47:00,75.6,55.6,30.17,ESE,113,2.0,10.0,50,0.00,,,0.00,meteohub,2013-08-26 11:47:00,
2013-08-26 05:52:00,75.4,55.4,30.17,ESE,123,3.0,9.0,50,0.00,,,0.00,meteohub,2013-08-26 11:52:00,
2013-08-26 05:57:00,75.0,55.6,30.18,ESE,117,3.0,9.0,51,0.00,,,0.00,meteohub,2013-08-26 11:57:00,
2013-08-26 06:02:00,74.8,56.1,30.17,ESE,119,2.0,7.0,52,0.00,,,0.00,meteohub,2013-08-26 12:02:00,
2013-08-26 06:07:00,74.5,55.8,30.17,SE,124,3.0,5.0,52,0.00,,,0.00,meteohub,2013-08-26 12:07:00,
2013-08-26 06:12:00,74.7,55.9,30.18,SSE,148,3.0,5.0,52,0.00,,,0.00,meteohub,2013-08-26 12:12:00,
2013-08-26 06:17:00,74.7,55.9,30.18,SSE,153,3.0,5.0,52,0.00,,,0.00,meteohub,2013-08-26 12:17:00,
2013-08-26 06:22:00,74.8,55.6,30.18,SSE,159,4.0,6.0,51,0.00,,,0.00,meteohub,2013-08-26 12:22:00,
2013-08-26 06:27:00,74.7,55.4,30.18,SSE,168,3.0,6.0,51,0.00,,,0.00,meteohub,2013-08-26 12:27:00,
2013-08-26 06:32:00,74.5,55.8,30.18,South,170,2.0,5.0,52,0.00,,,0.00,meteohub,2013-08-26 12:32:00,
2013-08-26 06:37:00,74.5,55.8,30.18,South,173,5.0,5.0,52,0.00,,,0.00,meteohub,2013-08-26 12:37:00,
2013-08-26 06:42:00,74.1,55.4,30.18,South,173,0.0,5.0,52,0.00,,,0.00,meteohub,2013-08-26 12:42:00,
2013-08-26 06:47:00,74.1,55.4,30.18,South,173,0.0,5.0,52,0.00,,,0.00,meteohub,2013-08-26 12:47:00,
2013-08-26 06:52:00,74.1,55.4,30.19,SSE,161,2.0,5.0,52,0.00,,,0.00,meteohub,2013-08-26 12:52:00,
2013-08-26 06:57:00,74.3,55.6,30.19,SSE,160,1.0,4.0,52,0.00,,,0.00,meteohub,2013-08-26 12:57:00,
2013-08-26 07:02:00,74.5,56.3,30.19,SSE,160,1.0,4.0,53,0.00,,,0.00,meteohub,2013-08-26 13:02:00,
2013-08-26 07:07:00,74.5,56.3,30.19,SSE,160,0.0,4.0,53,0.00,,,0.00,meteohub,2013-08-26 13:07:00,
2013-08-26 07:12:00,74.7,56.5,30.19,SSE,160,2.0,3.0,53,0.00,,,0.00,meteohub,2013-08-26 13:12:00,
2013-08-26 07:17:00,74.7,56.5,30.19,SSE,160,2.0,3.0,53,0.00,,,0.00,meteohub,2013-08-26 13:17:00,
2013-08-26 07:22:00,74.8,56.1,30.19,SSE,160,0.0,3.0,52,0.00,,,0.00,meteohub,2013-08-26 13:22:00,
2013-08-26 07:27:00,75.2,56.3,30.20,SSE,160,0.0,3.0,52,0.00,,,0.00,meteohub,2013-08-26 13:27:00,
2013-08-26 07:32:00,75.4,56.5,30.20,SSE,160,0.0,3.0,52,0.00,,,0.00,meteohub,2013-08-26 13:32:00,
2013-08-26 07:37:00,75.4,57.6,30.20,SE,134,1.0,3.0,54,0.00,,,0.00,meteohub,2013-08-26 13:37:00,
2013-08-26 07:42:00,75.4,57.6,30.20,SE,130,1.0,3.0,54,0.00,,,0.00,meteohub,2013-08-26 13:42:00,
2013-08-26 07:47:00,75.7,57.9,30.20,SE,130,1.0,3.0,54,0.00,,,0.00,meteohub,2013-08-26 13:47:00,
2013-08-26 07:52:00,76.1,58.3,30.20,SE,128,0.0,4.0,54,0.00,,,0.00,meteohub,2013-08-26 13:52:00,
2013-08-26 07:57:00,76.5,58.1,30.20,ESE,119,2.0,4.0,53,0.00,,,0.00,meteohub,2013-08-26 13:57:00,
2013-08-26 08:02:00,76.5,57.6,30.20,ESE,117,7.0,7.0,52,0.00,,,0.00,meteohub,2013-08-26 14:02:00,
2013-08-26 08:07:00,76.6,57.7,30.21,ESE,123,4.0,8.0,52,0.00,,,0.00,meteohub,2013-08-26 14:07:00,
2013-08-26 08:12:00,76.6,57.7,30.21,SE,128,4.0,8.0,52,0.00,,,0.00,meteohub,2013-08-26 14:12:00,
2013-08-26 08:17:00,77.2,58.3,30.21,SE,139,3.0,8.0,52,0.00,,,0.00,meteohub,2013-08-26 14:17:00,
2013-08-26 08:22:00,77.7,58.1,30.21,ESE,105,5.0,7.0,51,0.00,,,0.00,meteohub,2013-08-26 14:22:00,
2013-08-26 08:27:00,78.4,58.3,30.21,ESE,123,5.0,9.0,50,0.00,,,0.00,meteohub,2013-08-26 14:27:00,
2013-08-26 08:32:00,79.2,58.3,30.21,ESE,106,8.0,9.0,49,0.00,,,0.00,meteohub,2013-08-26 14:32:00,
2013-08-26 08:37:00,79.5,57.6,30.21,ESE,109,10.0,11.0,47,0.00,,,0.00,meteohub,2013-08-26 14:37:00,
2013-08-26 08:42:00,79.9,58.5,30.21,ESE,117,7.0,13.0,48,0.00,,,0.00,meteohub,2013-08-26 14:42:00,
2013-08-26 08:47:00,80.2,57.6,30.21,East,86,7.0,13.0,46,0.00,,,0.00,meteohub,2013-08-26 14:47:00,
2013-08-26 08:52:00,80.4,57.7,30.21,East,94,11.0,15.0,46,0.00,,,0.00,meteohub,2013-08-26 14:52:00,
2013-08-26 08:57:00,80.8,57.4,30.21,ESE,117,8.0,15.0,45,0.00,,,0.00,meteohub,2013-08-26 14:57:00,
2013-08-26 09:02:00,81.0,57.6,30.21,ESE,108,13.0,16.0,45,0.00,,,0.00,meteohub,2013-08-26 15:02:00,
2013-08-26 09:07:00,81.3,57.9,30.21,SE,137,7.0,16.0,45,0.00,,,0.00,meteohub,2013-08-26 15:07:00,
2013-08-26 09:12:00,81.7,58.3,30.21,SE,141,10.0,16.0,45,0.00,,,0.00,meteohub,2013-08-26 15:12:00,
2013-08-26 09:17:00,81.9,58.5,30.21,ESE,109,7.0,13.0,45,0.00,,,0.00,meteohub,2013-08-26 15:17:00,
2013-08-26 09:22:00,81.9,57.7,30.21,SE,136,10.0,14.0,44,0.00,,,0.00,meteohub,2013-08-26 15:22:00,
2013-08-26 09:27:00,82.6,58.5,30.21,ESE,116,11.0,16.0,44,0.00,,,0.00,meteohub,2013-08-26 15:27:00,
2013-08-26 09:32:00,82.9,58.8,30.22,ESE,120,8.0,16.0,44,0.00,,,0.00,meteohub,2013-08-26 15:32:00,
2013-08-26 09:37:00,82.9,58.1,30.22,SE,127,8.0,14.0,43,0.00,,,0.00,meteohub,2013-08-26 15:37:00,
2013-08-26 09:42:00,82.9,58.1,30.22,SSE,155,8.0,18.0,43,0.00,,,0.00,meteohub,2013-08-26 15:42:00,
2013-08-26 09:47:00,82.9,58.1,30.22,SE,132,8.0,18.0,43,0.00,,,0.00,meteohub,2013-08-26 15:47:00,
2013-08-26 09:52:00,83.7,58.1,30.22,SE,126,8.0,18.0,42,0.00,,,0.00,meteohub,2013-08-26 15:52:00,
2013-08-26 09:57:00,83.8,57.6,30.22,SE,132,9.0,17.0,41,0.00,,,0.00,meteohub,2013-08-26 15:57:00,
2013-08-26 10:02:00,84.0,57.7,30.22,SE,138,13.0,15.0,41,0.00,,,0.00,meteohub,2013-08-26 16:02:00,
2013-08-26 10:07:00,84.2,57.9,30.22,SE,129,9.0,17.0,41,0.00,,,0.00,meteohub,2013-08-26 16:07:00,
2013-08-26 10:12:00,84.4,58.1,30.22,ESE,113,9.0,17.0,41,0.00,,,0.00,meteohub,2013-08-26 16:12:00,
2013-08-26 10:17:00,84.7,57.7,30.22,ESE,116,8.0,17.0,40,0.00,,,0.00,meteohub,2013-08-26 16:17:00,
2013-08-26 10:22:00,84.9,57.9,30.22,SSE,155,12.0,16.0,40,0.00,,,0.00,meteohub,2013-08-26 16:22:00,
2013-08-26 10:27:00,85.6,57.9,30.22,SSE,150,13.0,16.0,39,0.00,,,0.00,meteohub,2013-08-26 16:27:00,
2013-08-26 10:32:00,85.5,57.7,30.22,SSE,167,8.0,16.0,39,0.00,,,0.00,meteohub,2013-08-26 16:32:00,
2013-08-26 10:37:00,85.3,58.3,30.22,SE,132,7.0,16.0,40,0.00,,,0.00,meteohub,2013-08-26 16:37:00,
2013-08-26 10:42:00,85.8,57.9,30.22,SSE,159,12.0,16.0,39,0.00,,,0.00,meteohub,2013-08-26 16:42:00,
2013-08-26 10:47:00,85.8,57.9,30.22,SSE,151,6.0,15.0,39,0.00,,,0.00,meteohub,2013-08-26 16:47:00,
2013-08-26 10:52:00,86.2,57.6,30.22,SSE,150,12.0,15.0,38,0.00,,,0.00,meteohub,2013-08-26 16:52:00,
2013-08-26 10:57:00,86.4,57.0,30.22,SSE,157,9.0,15.0,37,0.00,,,0.00,meteohub,2013-08-26 16:57:00,
2013-08-26 11:02:00,86.7,57.4,30.22,SE,126,12.0,18.0,37,0.00,,,0.00,meteohub,2013-08-26 17:02:00,
2013-08-26 11:07:00,86.7,57.4,30.22,SE,138,7.0,18.0,37,0.00,,,0.00,meteohub,2013-08-26 17:07:00,
2013-08-26 11:12:00,86.9,57.6,30.22,SE,134,8.0,16.0,37,0.00,,,0.00,meteohub,2013-08-26 17:12:00,
2013-08-26 11:17:00,86.7,57.4,30.21,SE,126,9.0,15.0,37,0.00,,,0.00,meteohub,2013-08-26 17:17:00,
2013-08-26 11:22:00,87.1,57.6,30.21,East,99,7.0,17.0,37,0.00,,,0.00,meteohub,2013-08-26 17:22:00,
2013-08-26 11:27:00,87.8,58.3,30.21,ESE,113,10.0,17.0,37,0.00,,,0.00,meteohub,2013-08-26 17:27:00,
2013-08-26 11:32:00,88.3,57.2,30.21,SE,130,7.0,14.0,35,0.00,,,0.00,meteohub,2013-08-26 17:32:00,
2013-08-26 11:37:00,88.0,57.7,30.20,SE,127,8.0,15.0,36,0.00,,,0.00,meteohub,2013-08-26 17:37:00,
2013-08-26 11:42:00,88.0,57.7,30.20,SSE,153,2.0,15.0,36,0.00,,,0.00,meteohub,2013-08-26 17:42:00,
2013-08-26 11:47:00,88.5,57.4,30.20,SE,127,5.0,15.0,35,0.00,,,0.00,meteohub,2013-08-26 17:47:00,
2013-08-26 11:52:00,89.1,57.0,30.20,SSE,153,7.0,15.0,34,0.00,,,0.00,meteohub,2013-08-26 17:52:00,
2013-08-26 11:57:00,89.2,57.2,30.20,SE,132,8.0,15.0,34,0.00,,,0.00,meteohub,2013-08-26 17:57:00,
2013-08-26 12:02:00,89.4,56.5,30.20,SSE,150,7.0,15.0,33,0.00,,,0.00,meteohub,2013-08-26 18:02:00,
2013-08-26 12:07:00,89.4,56.5,30.19,SE,137,6.0,15.0,33,0.00,,,0.00,meteohub,2013-08-26 18:07:00,
2013-08-26 12:12:00,88.7,56.7,30.19,East,84,6.0,15.0,34,0.00,,,0.00,meteohub,2013-08-26 18:12:00,
2013-08-26 12:17:00,89.8,57.7,30.19,ESE,108,9.0,15.0,34,0.00,,,0.00,meteohub,2013-08-26 18:17:00,
2013-08-26 12:22:00,91.0,57.0,30.19,SSE,152,12.0,15.0,32,0.00,,,0.00,meteohub,2013-08-26 18:22:00,
2013-08-26 12:27:00,90.5,56.7,30.19,SE,133,7.0,21.0,32,0.00,,,0.00,meteohub,2013-08-26 18:27:00,
2013-08-26 12:32:00,89.8,55.9,30.19,ESE,107,10.0,21.0,32,0.00,,,0.00,meteohub,2013-08-26 18:32:00,
2013-08-26 12:37:00,90.3,57.4,30.18,ESE,108,11.0,21.0,33,0.00,,,0.00,meteohub,2013-08-26 18:37:00,
2013-08-26 12:42:00,90.3,56.5,30.18,SE,132,12.0,18.0,32,0.00,,,0.00,meteohub,2013-08-26 18:42:00,
2013-08-26 12:47:00,90.5,57.4,30.18,SE,126,6.0,18.0,33,0.00,,,0.00,meteohub,2013-08-26 18:47:00,
2013-08-26 12:52:00,91.6,56.7,30.17,ESE,112,7.0,18.0,31,0.00,,,0.00,meteohub,2013-08-26 18:52:00,
2013-08-26 12:57:00,91.0,56.1,30.17,SSE,150,8.0,18.0,31,0.00,,,0.00,meteohub,2013-08-26 18:57:00,
2013-08-26 13:02:00,89.4,55.8,30.17,ESE,117,4.0,16.0,32,0.00,,,0.00,meteohub,2013-08-26 19:02:00,
2013-08-26 13:07:00,90.1,55.4,30.17,ENE,68,12.0,15.0,31,0.00,,,0.00,meteohub,2013-08-26 19:07:00,
2013-08-26 13:12:00,90.7,55.9,30.17,ESE,109,12.0,15.0,31,0.00,,,0.00,meteohub,2013-08-26 19:12:00,
2013-08-26 13:17:00,90.1,56.3,30.17,SE,137,7.0,15.0,32,0.00,,,0.00,meteohub,2013-08-26 19:17:00,
2013-08-26 13:22:00,89.4,56.5,30.17,ESE,121,5.0,18.0,33,0.00,,,0.00,meteohub,2013-08-26 19:22:00,
2013-08-26 13:27:00,90.1,56.3,30.17,SE,138,10.0,18.0,32,0.00,,,0.00,meteohub,2013-08-26 19:27:00,
2013-08-26 13:32:00,89.8,55.9,30.16,ENE,67,1.0,18.0,32,0.00,,,0.00,meteohub,2013-08-26 19:32:00,
2013-08-26 13:37:00,90.7,56.8,30.16,SSE,161,10.0,16.0,32,0.00,,,0.00,meteohub,2013-08-26 19:37:00,
2013-08-26 13:42:00,90.3,55.6,30.16,SSE,150,7.0,17.0,31,0.00,,,0.00,meteohub,2013-08-26 19:42:00,
2013-08-26 13:47:00,90.1,55.4,30.16,East,101,11.0,17.0,31,0.00,,,0.00,meteohub,2013-08-26 19:47:00,
2013-08-26 13:52:00,90.1,55.4,30.16,East,99,6.0,17.0,31,0.00,,,0.00,meteohub,2013-08-26 19:52:00,
2013-08-26 13:57:00,90.7,56.8,30.16,SE,144,10.0,16.0,32,0.00,,,0.00,meteohub,2013-08-26 19:57:00,
2013-08-26 14:02:00,91.8,55.9,30.16,ESE,117,9.0,17.0,30,0.00,,,0.00,meteohub,2013-08-26 20:02:00,
2013-08-26 14:07:00,92.5,55.6,30.15,ESE,109,3.0,17.0,29,0.00,,,0.00,meteohub,2013-08-26 20:07:00,
2013-08-26 14:12:00,92.1,56.3,30.15,SSE,154,11.0,17.0,30,0.00,,,0.00,meteohub,2013-08-26 20:12:00,
2013-08-26 14:17:00,92.7,55.8,30.15,East,90,6.0,16.0,29,0.00,,,0.00,meteohub,2013-08-26 20:17:00,
2013-08-26 14:22:00,92.3,55.4,30.15,ESE,113,2.0,16.0,29,0.00,,,0.00,meteohub,2013-08-26 20:22:00,
2013-08-26 14:27:00,91.9,55.2,30.14,ESE,115,3.0,16.0,29,0.00,,,0.00,meteohub,2013-08-26 20:27:00,
2013-08-26 14:32:00,92.7,54.9,30.14,SSE,156,4.0,14.0,28,0.00,,,0.00,meteohub,2013-08-26 20:32:00,
2013-08-26 14:37:00,92.7,56.7,30.14,SSE,153,11.0,16.0,30,0.00,,,0.00,meteohub,2013-08-26 20:37:00,
2013-08-26 14:42:00,91.9,55.2,30.14,SE,138,3.0,16.0,29,0.00,,,0.00,meteohub,2013-08-26 20:42:00,
2013-08-26 14:47:00,93.6,56.5,30.13,ENE,76,13.0,15.0,29,0.00,,,0.00,meteohub,2013-08-26 20:47:00,
2013-08-26 14:52:00,91.9,55.2,30.13,ESE,119,4.0,22.0,29,0.00,,,0.00,meteohub,2013-08-26 20:52:00,
2013-08-26 14:57:00,92.3,54.5,30.13,ESE,107,10.0,22.0,28,0.00,,,0.00,meteohub,2013-08-26 20:57:00,
2013-08-26 15:02:00,91.9,55.2,30.13,SE,126,8.0,17.0,29,0.00,,,0.00,meteohub,2013-08-26 21:02:00,
2013-08-26 15:07:00,92.1,54.3,30.12,East,96,15.0,16.0,28,0.00,,,0.00,meteohub,2013-08-26 21:07:00,
2013-08-26 15:12:00,91.4,53.8,30.12,East,100,11.0,18.0,28,0.00,,,0.00,meteohub,2013-08-26 21:12:00,
2013-08-26 15:17:00,90.9,54.1,30.12,ESE,109,9.0,18.0,29,0.00,,,0.00,meteohub,2013-08-26 21:17:00,
2013-08-26 15:22:00,90.5,54.0,30.12,SSE,157,9.0,26.0,29,0.00,,,0.00,meteohub,2013-08-26 21:22:00,
2013-08-26 15:27:00,90.7,54.1,30.12,SE,145,8.0,26.0,29,0.00,,,0.00,meteohub,2013-08-26 21:27:00,
2013-08-26 15:32:00,91.8,54.0,30.12,SSE,159,14.0,16.0,28,0.00,,,0.00,meteohub,2013-08-26 21:32:00,
2013-08-26 15:37:00,91.9,54.1,30.12,ENE,63,7.0,16.0,28,0.00,,,0.00,meteohub,2013-08-26 21:37:00,
2013-08-26 15:42:00,91.6,53.8,30.12,ESE,113,9.0,16.0,28,0.00,,,0.00,meteohub,2013-08-26 21:42:00,
2013-08-26 15:47:00,90.7,54.1,30.12,SE,132,9.0,16.0,29,0.00,,,0.00,meteohub,2013-08-26 21:47:00,
2013-08-26 15:52:00,91.0,53.4,30.12,SE,138,9.0,15.0,28,0.00,,,0.00,meteohub,2013-08-26 21:52:00,
2013-08-26 15:57:00,92.5,52.5,30.11,ESE,106,12.0,15.0,26,0.00,,,0.00,meteohub,2013-08-26 21:57:00,
2013-08-26 16:02:00,92.7,52.7,30.11,SE,128,4.0,15.0,26,0.00,,,0.00,meteohub,2013-08-26 22:02:00,
2013-08-26 16:07:00,92.8,52.9,30.11,SE,126,12.0,17.0,26,0.00,,,0.00,meteohub,2013-08-26 22:07:00,
2013-08-26 16:12:00,93.6,53.6,30.11,ESE,113,13.0,17.0,26,0.00,,,0.00,meteohub,2013-08-26 22:12:00,
2013-08-26 16:17:00,93.4,54.3,30.11,SE,134,12.0,18.0,27,0.00,,,0.00,meteohub,2013-08-26 22:17:00,
2013-08-26 16:22:00,93.4,53.4,30.10,SE,127,13.0,18.0,26,0.00,,,0.00,meteohub,2013-08-26 22:22:00,
2013-08-26 16:27:00,93.4,53.4,30.11,SSE,153,12.0,18.0,26,0.00,,,0.00,meteohub,2013-08-26 22:27:00,
2013-08-26 16:32:00,93.6,53.6,30.11,ESE,113,11.0,16.0,26,0.00,,,0.00,meteohub,2013-08-26 22:32:00,
2013-08-26 16:37:00,93.6,54.5,30.10,SE,146,10.0,16.0,27,0.00,,,0.00,meteohub,2013-08-26 22:37:00,
2013-08-26 16:42:00,92.8,54.0,30.10,SE,135,12.0,16.0,27,0.00,,,0.00,meteohub,2013-08-26 22:42:00,
2013-08-26 16:47:00,92.7,53.8,30.10,ESE,115,7.0,16.0,27,0.00,,,0.00,meteohub,2013-08-26 22:47:00,
2013-08-26 16:52:00,92.7,53.8,30.10,ENE,67,10.0,18.0,27,0.00,,,0.00,meteohub,2013-08-26 22:52:00,
2013-08-26 16:57:00,91.9,53.2,30.10,East,93,9.0,18.0,27,0.00,,,0.00,meteohub,2013-08-26 22:57:00,
2013-08-26 17:02:00,91.4,53.8,30.10,SE,129,9.0,16.0,28,0.00,,,0.00,meteohub,2013-08-26 23:02:00,
2013-08-26 17:07:00,91.2,53.6,30.10,East,94,13.0,16.0,28,0.00,,,0.00,meteohub,2013-08-26 23:07:00,
2013-08-26 17:12:00,90.9,53.2,30.10,East,83,6.0,16.0,28,0.00,,,0.00,meteohub,2013-08-26 23:12:00,
2013-08-26 17:17:00,90.5,52.9,30.09,ESE,115,7.0,16.0,28,0.00,,,0.00,meteohub,2013-08-26 23:17:00,
2013-08-26 17:22:00,90.3,52.9,30.09,SE,142,6.0,16.0,28,0.00,,,0.00,meteohub,2013-08-26 23:22:00,
2013-08-26 17:27:00,90.3,52.9,30.09,ESE,123,16.0,16.0,28,0.00,,,0.00,meteohub,2013-08-26 23:27:00,
2013-08-26 17:32:00,90.9,52.3,30.09,SE,146,8.0,18.0,27,0.00,,,0.00,meteohub,2013-08-26 23:32:00,
2013-08-26 17:37:00,91.4,52.7,30.09,SE,130,14.0,18.0,27,0.00,,,0.00,meteohub,2013-08-26 23:37:00,
2013-08-26 17:42:00,91.8,53.1,30.09,ESE,120,9.0,18.0,27,0.00,,,0.00,meteohub,2013-08-26 23:42:00,
2013-08-26 17:47:00,91.6,52.9,30.09,SSE,149,11.0,15.0,27,0.00,,,0.00,meteohub,2013-08-26 23:47:00,
2013-08-26 17:53:00,91.4,52.7,30.09,East,90,8.0,19.0,27,0.00,,,0.00,meteohub,2013-08-26 23:53:00,
2013-08-26 17:59:00,91.0,53.4,30.09,ESE,116,8.0,19.0,28,0.00,,,0.00,meteohub,2013-08-26 23:59:00,
2013-08-26 18:04:00,90.9,53.2,30.09,ESE,103,9.0,19.0,28,0.00,,,0.00,meteohub,2013-08-27 00:04:00,
2013-08-26 18:10:00,90.9,53.2,30.09,SE,128,6.0,17.0,28,0.00,,,0.00,meteohub,2013-08-27 00:10:00,
2013-08-26 18:16:00,90.9,53.2,30.08,SE,133,11.0,14.0,28,0.00,,,0.00,meteohub,2013-08-27 00:16:00,
2013-08-26 18:22:00,90.9,52.3,30.08,ESE,104,10.0,20.0,27,0.00,,,0.00,meteohub,2013-08-27 00:22:00,
2013-08-26 18:27:00,90.9,53.2,30.08,ESE,114,10.0,20.0,28,0.00,,,0.00,meteohub,2013-08-27 00:27:00,
2013-08-26 18:32:00,90.7,53.1,30.08,SE,129,13.0,20.0,28,0.00,,,0.00,meteohub,2013-08-27 00:32:00,
2013-08-26 18:37:00,90.3,52.9,30.08,ESE,119,4.0,15.0,28,0.00,,,0.00,meteohub,2013-08-27 00:37:00,
2013-08-26 18:42:00,90.1,52.7,30.08,SE,126,6.0,15.0,28,0.00,,,0.00,meteohub,2013-08-27 00:42:00,
2013-08-26 18:47:00,90.0,52.5,30.08,SE,127,7.0,15.0,28,0.00,,,0.00,meteohub,2013-08-27 00:47:00,
2013-08-26 18:52:00,89.8,52.3,30.08,SE,132,10.0,16.0,28,0.00,,,0.00,meteohub,2013-08-27 00:52:00,
2013-08-26 18:57:00,89.6,52.2,30.08,ESE,105,4.0,16.0,28,0.00,,,0.00,meteohub,2013-08-27 00:57:00,
2013-08-26 19:02:00,89.4,53.1,30.07,SSE,149,8.0,15.0,29,0.00,,,0.00,meteohub,2013-08-27 01:02:00,
2013-08-26 19:07:00,89.2,52.9,30.08,SE,126,6.0,14.0,29,0.00,,,0.00,meteohub,2013-08-27 01:07:00,
2013-08-26 19:12:00,88.9,52.5,30.07,SE,132,5.0,13.0,29,0.00,,,0.00,meteohub,2013-08-27 01:12:00,
2013-08-26 19:17:00,88.7,52.3,30.08,SE,138,10.0,14.0,29,0.00,,,0.00,meteohub,2013-08-27 01:17:00,
2013-08-26 19:22:00,88.5,52.2,30.08,ESE,123,19.0,19.0,29,0.00,,,0.00,meteohub,2013-08-27 01:22:00,
2013-08-26 19:27:00,88.3,52.0,30.08,ESE,121,12.0,19.0,29,0.00,,,0.00,meteohub,2013-08-27 01:27:00,
2013-08-26 19:32:00,88.2,52.0,30.08,SE,132,8.0,19.0,29,0.00,,,0.00,meteohub,2013-08-27 01:32:00,
2013-08-26 19:37:00,88.0,52.7,30.08,SE,129,12.0,19.0,30,0.00,,,0.00,meteohub,2013-08-27 01:37:00,
2013-08-26 19:42:00,87.8,52.5,30.08,SE,128,10.0,19.0,30,0.00,,,0.00,meteohub,2013-08-27 01:42:00,
2013-08-26 19:47:00,87.6,52.3,30.08,East,100,9.0,19.0,30,0.00,,,0.00,meteohub,2013-08-27 01:47:00,
2013-08-26 19:52:00,87.4,53.1,30.08,SE,129,7.0,19.0,31,0.00,,,0.00,meteohub,2013-08-27 01:52:00,
2013-08-26 19:57:00,87.3,52.9,30.08,ESE,113,10.0,16.0,31,0.00,,,0.00,meteohub,2013-08-27 01:57:00,
2013-08-26 20:02:00,87.1,52.7,30.08,ESE,117,8.0,16.0,31,0.00,,,0.00,meteohub,2013-08-27 02:02:00,
2013-08-26 20:07:00,86.7,53.4,30.08,SE,128,5.0,16.0,32,0.00,,,0.00,meteohub,2013-08-27 02:07:00,
2013-08-26 20:12:00,86.4,53.1,30.08,SE,125,4.0,15.0,32,0.00,,,0.00,meteohub,2013-08-27 02:12:00,
2013-08-26 20:17:00,86.2,52.9,30.09,ESE,104,5.0,11.0,32,0.00,,,0.00,meteohub,2013-08-27 02:17:00,
2013-08-26 20:22:00,86.2,52.9,30.09,SE,129,8.0,11.0,32,0.00,,,0.00,meteohub,2013-08-27 02:22:00,
2013-08-26 20:27:00,86.2,52.9,30.09,ESE,118,10.0,12.0,32,0.00,,,0.00,meteohub,2013-08-27 02:27:00,
2013-08-26 20:32:00,86.2,52.9,30.09,ESE,117,13.0,16.0,32,0.00,,,0.00,meteohub,2013-08-27 02:32:00,
2013-08-26 20:37:00,86.2,53.8,30.09,ESE,113,10.0,19.0,33,0.00,,,0.00,meteohub,2013-08-27 02:37:00,
2013-08-26 20:42:00,86.2,53.8,30.09,East,96,18.0,19.0,33,0.00,,,0.00,meteohub,2013-08-27 02:42:00,
2013-08-26 20:47:00,86.2,53.8,30.09,SE,125,10.0,23.0,33,0.00,,,0.00,meteohub,2013-08-27 02:47:00,
2013-08-26 20:52:00,85.8,53.4,30.10,ESE,108,19.0,23.0,33,0.00,,,0.00,meteohub,2013-08-27 02:52:00,
2013-08-26 20:57:00,85.8,53.4,30.10,ESE,108,9.0,22.0,33,0.00,,,0.00,meteohub,2013-08-27 02:57:00,
2013-08-26 21:02:00,85.6,53.2,30.10,ESE,105,9.0,22.0,33,0.00,,,0.00,meteohub,2013-08-27 03:02:00,
2013-08-26 21:07:00,85.5,54.0,30.11,SE,130,6.0,22.0,34,0.00,,,0.00,meteohub,2013-08-27 03:07:00,
2013-08-26 21:12:00,85.3,53.8,30.11,East,80,15.0,17.0,34,0.00,,,0.00,meteohub,2013-08-27 03:12:00,
2013-08-26 21:17:00,85.3,53.8,30.11,ESE,103,5.0,17.0,34,0.00,,,0.00,meteohub,2013-08-27 03:17:00,
2013-08-26 21:22:00,85.1,53.6,30.12,East,85,7.0,16.0,34,0.00,,,0.00,meteohub,2013-08-27 03:22:00,
2013-08-26 21:27:00,84.9,53.4,30.12,ESE,117,8.0,16.0,34,0.00,,,0.00,meteohub,2013-08-27 03:27:00,
2013-08-26 21:32:00,84.7,53.2,30.12,ESE,109,7.0,16.0,34,0.00,,,0.00,meteohub,2013-08-27 03:32:00,
2013-08-26 21:37:00,84.7,54.1,30.12,ESE,113,15.0,16.0,35,0.00,,,0.00,meteohub,2013-08-27 03:37:00,
2013-08-26 21:42:00,84.6,54.0,30.12,East,99,7.0,16.0,35,0.00,,,0.00,meteohub,2013-08-27 03:42:00,
2013-08-26 21:47:00,84.4,53.8,30.12,ESE,122,5.0,16.0,35,0.00,,,0.00,meteohub,2013-08-27 03:47:00,
2013-08-26 21:52:00,84.2,54.3,30.12,ESE,123,7.0,16.0,36,0.00,,,0.00,meteohub,2013-08-27 03:52:00,
2013-08-26 21:57:00,84.0,54.1,30.12,ESE,109,10.0,16.0,36,0.00,,,0.00,meteohub,2013-08-27 03:57:00,
2013-08-26 22:01:00,83.8,54.0,30.12,ESE,111,15.0,17.0,36,0.00,,,0.00,meteohub,2013-08-27 04:01:00,
2013-08-26 22:02:00,83.8,54.0,30.12,ESE,117,10.0,17.0,36,0.00,,,0.00,meteohub,2013-08-27 04:02:00,
2013-08-26 22:04:00,83.8,54.0,30.12,East,94,7.0,17.0,36,0.00,,,0.00,meteohub,2013-08-27 04:04:00,
2013-08-26 22:05:00,83.8,54.0,30.12,ESE,111,13.0,17.0,36,0.00,,,0.00,meteohub,2013-08-27 04:05:00,
2013-08-26 22:06:00,83.8,54.0,30.12,ESE,121,14.0,17.0,36,0.00,,,0.00,meteohub,2013-08-27 04:06:00,
2013-08-26 22:12:00,83.8,54.0,30.12,SE,130,9.0,19.0,36,0.00,,,0.00,meteohub,2013-08-27 04:12:00,
2013-08-26 22:17:00,83.8,54.0,30.13,East,94,10.0,19.0,36,0.00,,,0.00,meteohub,2013-08-27 04:17:00,
2013-08-26 22:22:00,83.7,54.0,30.13,SE,127,10.0,18.0,36,0.00,,,0.00,meteohub,2013-08-27 04:22:00,
2013-08-26 22:27:00,83.5,53.8,30.12,SSE,150,10.0,17.0,36,0.00,,,0.00,meteohub,2013-08-27 04:27:00,
2013-08-26 22:32:00,83.1,54.1,30.13,SE,136,9.0,17.0,37,0.00,,,0.00,meteohub,2013-08-27 04:32:00,
2013-08-26 22:37:00,83.1,54.1,30.13,SE,135,9.0,16.0,37,0.00,,,0.00,meteohub,2013-08-27 04:37:00,
2013-08-26 22:42:00,82.9,54.0,30.13,ESE,106,3.0,15.0,37,0.00,,,0.00,meteohub,2013-08-27 04:42:00,
2013-08-26 22:47:00,82.8,53.8,30.13,ESE,121,9.0,15.0,37,0.00,,,0.00,meteohub,2013-08-27 04:47:00,
2013-08-26 22:52:00,82.6,54.3,30.13,ESE,115,5.0,14.0,38,0.00,,,0.00,meteohub,2013-08-27 04:52:00,
2013-08-26 22:57:00,82.2,54.1,30.13,ESE,123,4.0,13.0,38,0.00,,,0.00,meteohub,2013-08-27 04:57:00,
2013-08-26 23:02:00,82.2,54.1,30.14,SE,128,5.0,13.0,38,0.00,,,0.00,meteohub,2013-08-27 05:02:00,
2013-08-26 23:07:00,82.0,54.0,30.14,ESE,121,4.0,13.0,38,0.00,,,0.00,meteohub,2013-08-27 05:07:00,
2013-08-26 23:12:00,81.9,54.5,30.14,ESE,122,4.0,11.0,39,0.00,,,0.00,meteohub,2013-08-27 05:12:00,
2013-08-26 23:17:00,81.9,54.5,30.14,SE,136,5.0,11.0,39,0.00,,,0.00,meteohub,2013-08-27 05:17:00,
2013-08-26 23:22:00,81.9,54.5,30.14,SE,131,7.0,14.0,39,0.00,,,0.00,meteohub,2013-08-27 05:22:00,
2013-08-26 23:27:00,81.7,54.3,30.14,ESE,118,7.0,14.0,39,0.00,,,0.00,meteohub,2013-08-27 05:27:00,
2013-08-26 23:32:00,81.7,54.3,30.13,ESE,111,7.0,14.0,39,0.00,,,0.00,meteohub,2013-08-27 05:32:00,
2013-08-26 23:37:00,81.7,54.3,30.14,SE,130,10.0,20.0,39,0.00,,,0.00,meteohub,2013-08-27 05:37:00,
2013-08-26 23:42:00,81.7,55.0,30.14,ESE,115,7.0,20.0,40,0.00,,,0.00,meteohub,2013-08-27 05:42:00,
2013-08-26 23:47:00,81.7,55.0,30.14,South,170,6.0,20.0,40,0.00,,,0.00,meteohub,2013-08-27 05:47:00,
2013-08-26 23:52:00,81.3,54.7,30.14,SE,128,9.0,17.0,40,0.00,,,0.00,meteohub,2013-08-27 05:52:00,
2013-08-26 23:57:00,81.1,54.5,30.13,SE,138,9.0,13.0,40,0.00,,,0.00,meteohub,2013-08-27 05:57:00,